[[{"header":{"parameterUnit":"m.s-1","parameterCategory":2,"la1":30.2991,"la2":30.254,"lo1":-89.0895,"lo2":-89.0444,"dy":0.0017,"dx":0.0017,"nx":28,"ny":28,"refTime":"2023-09-21T21:00:00:Z","depth":"0","parameterNumber":2,"parameterNumberName":"U-component_of_CURRENTS"},"data":[0,0,0,0,0,0,0,0,0,0,0,0,0,0,0,0,0,0,0,0,0,0,0,0,0,0,0,0,0,0,0,0,0,0,0,0,0,0,0,0,0,0,0,0,0,0,0,0,0,0,0,0,0,0,0,0,0,0,0.3579,0.3579,0,0.3618,0.3619,0.3619,0.3624,0.3624,0.3623,0.3623,0.3577,0.3577,0.3576,0,0,0,0,0,0,0,0,0,0,0,0,0,0.3502,0.3503,0.3579,0.3579,0.358,0.3618,0.3619,0.362,0.3624,0.3624,0.3623,0.3623,0.3578,0.3577,0.3576,0,0,0,0,0,0,0,0,0,0,0,0,0,0.3538,0.3504,0.3579,0.3586,0.3587,0.3618,0.3619,0.362,0.3624,0.3624,0.3623,0.3622,0.3578,0.3577,0.3576,0.3581,0,0,0.3572,0.3571,0,0,0,0,0,0,0,0,0.3536,0.3541,0.3585,0.3586,0.3587,0.3615,0.3575,0.3602,0.3624,0.3611,0.3623,0.3622,0.3582,0.3581,0.3591,0.3579,0.3577,0.3572,0.3571,0.357,0.357,0,0,0,0,0,0,0,0.3533,0.3539,0.3595,0.3585,0.3587,0.3586,0.3591,0.3581,0.3598,0.3612,0.3612,0.3616,0.3582,0.3593,0.359,0.3576,0.3572,0.3571,0.357,0.3569,0.3604,0.3606,0,0,0,0,0,0,0.3529,0.3537,0.3594,0.3596,0.3559,0.3588,0.3593,0.3607,0.36,0.3599,0.3617,0.3616,0.3595,0.3592,0.3588,0.3642,0.357,0.3569,0.3569,0.3602,0.3604,0.3606,0,0,0,0,0,0,0.3528,0.3534,0.3592,0.3566,0.3573,0.359,0.3606,0.3608,0.362,0.3605,0.3602,0.3626,0.3594,0.359,0.3593,0.3638,0.3569,0.3568,0.36,0.3603,0.3605,0.3717,0,0,0,0,0,0,0.3525,0.3534,0.3545,0.3566,0.3575,0.3617,0.3607,0.361,0.3624,0.3623,0.3612,0.3607,0.3594,0.3596,0.3592,0.3635,0.3567,0.3598,0.3602,0.3605,0.3712,0.3723,0.3734,0,0,0,0,0,0.3523,0.3545,0.3546,0.3553,0.359,0.3618,0.3623,0.3632,0.3625,0.3638,0.3633,0.3608,0.3613,0.3596,0.3591,0.3635,0.3597,0.3601,0.3604,0.3707,0.3721,0.3733,0,0,0,0,0,0,0.3514,0.3549,0.3549,0.358,0.3598,0.3619,0.3634,0.3636,0.3645,0.3641,0.3622,0.3619,0.3644,0.3618,0.3599,0.3654,0.3603,0.3606,0.3683,0.3696,0.3707,0.3738,0.3566,0,0,0,0,0,0.3518,0.3548,0.357,0.3594,0.3604,0.3618,0.363,0.3636,0.3645,0.3649,0.3649,0.3646,0.3658,0.3657,0.3659,0.3678,0.3677,0.3705,0.3716,0.3725,0.3749,0.3787,0.3804,0.3618,0.3618,0.3618,0,0,0.3514,0.3544,0.3554,0.3594,0.3608,0.3634,0.3624,0.3647,0.3678,0.364,0.3683,0.3683,0.3671,0.3708,0.3717,0.3689,0.3777,0.373,0.3739,0.3757,0.3793,0.3811,0.3827,0.3621,0.362,0.362,0,0,0.3526,0.3554,0.3576,0.3601,0.363,0.3648,0.3655,0.3683,0.3706,0.3741,0.3733,0.3768,0.3767,0.3793,0.3797,0.3866,0.3837,0.3855,0.3935,0.3972,0.3988,0.4003,0.4026,0.4042,0.3858,0.3858,0.3858,0,0.3513,0.3554,0.3585,0.3616,0.3638,0.3655,0.3678,0.3714,0.3744,0.3776,0.3764,0.3827,0.3821,0.3884,0.392,0.3896,0.3899,0.3887,0.3989,0.4003,0.4015,0.4036,0.4052,0.3864,0.3863,0.3863,0.3862,0,0.3539,0.3572,0.3591,0.3641,0.3673,0.3697,0.3744,0.3788,0.3817,0.3852,0.3928,0.3945,0.3979,0.3995,0.3982,0.4073,0.404,0.4002,0.396,0.4041,0.4057,0.4071,0.3872,0.387,0.3868,0.3867,0,0,0.3491,0.3587,0.3589,0.3614,0.3686,0.3707,0.3787,0.3856,0.3902,0.3968,0.404,0.4108,0.4123,0.4131,0.4129,0.4182,0.4281,0.4138,0.4138,0.417,0.4358,0.4211,0.4212,0.4255,0.4258,0.4261,0.4333,0,0.3488,0.355,0.3605,0.3654,0.3683,0.3749,0.3818,0.3891,0.3957,0.4035,0.4108,0.4164,0.4169,0.4189,0.4252,0.4271,0.4324,0.4265,0.4267,0.4267,0.4134,0.4225,0.3992,0.4025,0.4347,0.4349,0.4351,0,0.3478,0.3528,0.3583,0.3667,0.3683,0.3723,0.383,0.3894,0.4025,0.408,0.4179,0.4218,0.4333,0.4303,0.4421,0.4379,0.4388,0.4405,0.4406,0.4243,0.4148,0.3995,0.4038,0.3961,0.4372,0.437,0.4369,0,0.3419,0.35,0.3547,0.3575,0.3682,0.3724,0.3782,0.3906,0.3971,0.4112,0.4169,0.4294,0.4347,0.4418,0.4469,0.4447,0.4575,0.453,0.4414,0.4403,0.4192,0.4156,0.4166,0.4611,0.4611,0.4611,0.4611,0,0.3394,0.3422,0.352,0.3543,0.3592,0.3683,0.3751,0.3839,0.3968,0.4044,0.4176,0.425,0.4378,0.446,0.4501,0.4506,0.4596,0.4457,0.4423,0.4221,0.4188,0.4097,0.4052,0.4614,0.4613,0.4613,0.4612,0,0.3331,0.3396,0.3445,0.3544,0.3568,0.3606,0.3714,0.3769,0.3903,0.401,0.4059,0.4233,0.4341,0.4447,0.4552,0.451,0.4405,0.4516,0.4266,0.4201,0.3972,0.394,0.3774,0.3676,0.4399,0.4396,0.4393,0,0.3315,0.3338,0.3421,0.3441,0.3485,0.3547,0.3592,0.3724,0.3786,0.3987,0.4029,0.4181,0.4259,0.4368,0.4334,0.4365,0.4302,0.4143,0.4054,0.3952,0.3894,0.3777,0.37,0.383,0.3824,0.3818,0.3813,0,0.3284,0.3311,0.3352,0.3389,0.3425,0.3467,0.3537,0.3575,0.3737,0.381,0.392,0.4003,0.4095,0.401,0.4038,0.4033,0.3909,0.4021,0.3988,0.3516,0.3317,0.3206,0.38,0.3763,0.3768,0.3771,0.3774,0.3776,0.3255,0.3265,0.3312,0.3325,0.3353,0.3375,0.3354,0.3434,0.349,0.3548,0.3722,0.373,0.3727,0.372,0.3697,0.3494,0.3541,0.3368,0.3363,0.3277,0.309,0.3565,0.3433,0.3436,0.3439,0.3441,0.3444,0,0.3205,0.3218,0.3243,0.3236,0.319,0.3255,0.3291,0.324,0.3211,0.3307,0.3339,0.3288,0.3195,0.3203,0.3028,0.2869,0.277,0.2804,0.262,0.2601,0.3088,0.2972,0.2642,0.2643,0.2643,0.2643,0.2643,0.2643,0.3192,0.3175,0.317,0.3066,0.3039,0.2946,0.2926,0.2882,0.2902,0.2804,0.273,0.2761,0.2838,0.2727,0.2551,0.2483,0.2339,0.2142,0.225,0.2629,0.2682,0.2734,0.2619,0.2221,0.2221,0.1634,0.1629,0.1625]},{"header":{"parameterUnit":"m.s-1","parameterCategory":2,"la1":30.2991,"la2":30.254,"lo1":-89.0895,"lo2":-89.0444,"dy":0.0017,"dx":0.0017,"nx":28,"ny":28,"refTime":"2023-09-21T21:00:00:Z","depth":"0","parameterNumber":3,"parameterNumberName":"V-component_of_CURRENTS"},"data":[0,0,0,0,0,0,0,0,0,0,0,0,0,0,0,0,0,0,0,0,0,0,0,0,0,0,0,0,0,0,0,0,0,0,0,0,0,0,0,0,0,0,0,0,0,0,0,0,0,0,0,0,0,0,0,0,0,0,0.0219,0.0219,0,0.0177,0.0176,0.0175,0.0136,0.0136,0.0136,0.0135,0.0072,0.0071,0.007,0,0,0,0,0,0,0,0,0,0,0,0,0,0.0224,0.0224,0.0219,0.0219,0.0218,0.0177,0.0176,0.0175,0.0136,0.0136,0.0135,0.0135,0.0073,0.0071,0.0069,0,0,0,0,0,0,0,0,0,0,0,0,0,0.0204,0.0224,0.0219,0.0195,0.0193,0.0177,0.0176,0.0175,0.0136,0.0136,0.0135,0.0135,0.0073,0.0071,0.0069,0.0066,0,0,0.0063,0.0062,0,0,0,0,0,0,0,0,0.0205,0.0204,0.0199,0.0197,0.0194,0.0163,0.0155,0.0138,0.0136,0.0156,0.0135,0.0135,0.0102,0.0098,0.0089,0.0063,0.0061,0.0063,0.0061,0.0061,0.006,0,0,0,0,0,0,0,0.0207,0.0205,0.02,0.0199,0.0196,0.0172,0.0169,0.0151,0.0131,0.0154,0.0152,0.015,0.01,0.0091,0.0087,0.006,0.0063,0.0061,0.006,0.0059,0.0012,0.0012,0,0,0,0,0,0,0.0218,0.0207,0.0202,0.0199,0.02,0.0173,0.0169,0.0172,0.0131,0.0125,0.015,0.0148,0.0094,0.0089,0.0084,0.0082,0.0061,0.0059,0.0058,0.0012,0.0012,0.0012,0,0,0,0,0,0,0.0219,0.0218,0.0204,0.0203,0.02,0.0174,0.0177,0.0171,0.0164,0.0129,0.0122,0.0149,0.0094,0.0087,0.007,0.0079,0.0058,0.0056,0.0012,0.0012,0.0012,0.0075,0,0,0,0,0,0,0.0219,0.0219,0.0223,0.0204,0.02,0.0201,0.0177,0.0171,0.0164,0.0161,0.0125,0.0119,0.0093,0.0073,0.0068,0.0076,0.0054,0.0012,0.0012,0.0012,0.0073,0.0077,0.0081,0,0,0,0,0,0.0219,0.0233,0.0224,0.0223,0.0208,0.0201,0.0197,0.0175,0.0165,0.0166,0.0139,0.012,0.0069,0.0072,0.0065,0.0073,0.0012,0.0012,0.0012,0.0071,0.0077,0.0081,0,0,0,0,0,0,0.0237,0.0229,0.0219,0.0229,0.0218,0.0195,0.0196,0.0182,0.0161,0.0158,0.0123,0.0114,0.01,0.0077,0.0081,0.0057,0.0036,0.0035,0.0083,0.0088,0.0092,0.012,0.0053,0,0,0,0,0,0.0244,0.0252,0.0237,0.0245,0.0241,0.0219,0.0214,0.02,0.0181,0.0172,0.0148,0.0119,0.0095,0.0085,0.0059,0.0052,0.0049,0.005,0.0054,0.0058,0.0075,0.0072,0.0078,0.0012,0.0012,0.0012,0,0,0.0254,0.0251,0.0255,0.0249,0.0238,0.0245,0.0214,0.0213,0.0218,0.0169,0.0167,0.0132,0.0094,0.0082,0.0074,0.0066,0.0077,0.0058,0.0062,0.0077,0.0073,0.008,0.0086,0.0012,0.0012,0.0012,0,0,0.0284,0.0275,0.0292,0.0286,0.0277,0.0265,0.0269,0.025,0.0239,0.023,0.0194,0.0169,0.0136,0.0112,0.0095,0.0105,0.0095,0.0094,0.0142,0.0139,0.0145,0.015,0.0167,0.0173,0.0099,0.0099,0.0099,0,0.0294,0.0316,0.0295,0.0309,0.0314,0.028,0.0301,0.0286,0.0264,0.0265,0.0237,0.0192,0.0151,0.0146,0.0141,0.0116,0.0123,0.0129,0.0147,0.0151,0.0156,0.0172,0.0178,0.0102,0.0102,0.0102,0.0101,0,0.0337,0.0351,0.0361,0.0371,0.037,0.0383,0.0364,0.036,0.0341,0.0328,0.0314,0.0257,0.0234,0.021,0.0176,0.0187,0.0185,0.0151,0.0142,0.0167,0.0181,0.0187,0.0107,0.0106,0.0105,0.0104,0,0,0.0375,0.039,0.0396,0.0414,0.0407,0.0417,0.0423,0.0428,0.0448,0.0406,0.0433,0.0362,0.0333,0.0312,0.0265,0.0256,0.0279,0.0224,0.0222,0.0255,0.0298,0.027,0.0273,0.0254,0.0255,0.0256,0.0301,0,0.0417,0.0465,0.0458,0.0503,0.0526,0.0502,0.0519,0.0516,0.0501,0.0517,0.046,0.046,0.0373,0.0368,0.0341,0.0297,0.0294,0.0271,0.0257,0.0257,0.024,0.0278,0.0278,0.0316,0.0306,0.0307,0.0308,0,0.0467,0.0494,0.055,0.0582,0.0591,0.0613,0.0643,0.0653,0.0653,0.0643,0.0621,0.0582,0.0556,0.0482,0.0425,0.0419,0.0367,0.0329,0.0329,0.0287,0.0238,0.0285,0.0326,0.023,0.0316,0.0315,0.0314,0,0.0518,0.056,0.0612,0.0622,0.0651,0.0676,0.0693,0.0699,0.0729,0.0736,0.0764,0.0708,0.0701,0.0625,0.0518,0.0483,0.0475,0.0412,0.0344,0.0342,0.0332,0.0327,0.029,0.0387,0.0387,0.0387,0.0387,0,0.057,0.0612,0.0646,0.0677,0.075,0.0743,0.0816,0.0818,0.085,0.0918,0.0841,0.0888,0.0737,0.0701,0.0589,0.0494,0.0525,0.0374,0.0354,0.0353,0.0349,0.0254,0.0172,0.0389,0.0388,0.0388,0.0388,0,0.0618,0.0638,0.0704,0.0753,0.0778,0.0832,0.0902,0.0952,0.0969,0.106,0.1076,0.1038,0.0994,0.085,0.0741,0.0596,0.0442,0.0463,0.048,0.046,0.0272,0.0193,0.0133,0.0087,0.0395,0.0394,0.0394,0,0.0647,0.0688,0.0769,0.082,0.0849,0.0926,0.0984,0.1014,0.1078,0.1169,0.1231,0.1212,0.1231,0.1052,0.0804,0.062,0.0482,0.0466,0.0374,0.0282,0.0181,0.0131,0.0093,0.0396,0.0396,0.0396,0.0395,0,0.0706,0.0736,0.0792,0.0897,0.0972,0.106,0.1149,0.1221,0.1284,0.1379,0.1502,0.1537,0.1358,0.1166,0.0869,0.0712,0.0381,0.0453,0.0356,0.0182,0.013,0.007,0.0357,0.0393,0.0394,0.0394,0.0394,0.0394,0.0751,0.0802,0.0879,0.0979,0.1069,0.1188,0.1272,0.1387,0.1528,0.1683,0.1707,0.1794,0.1477,0.1078,0.0849,0.0403,0.0386,0.0252,0.0171,0.0136,0.0063,0.0352,0.0354,0.0354,0.0354,0.0354,0.0354,0,0.0802,0.0861,0.0956,0.1076,0.1181,0.1219,0.1377,0.148,0.1669,0.1829,0.1951,0.1861,0.1486,0.1072,0.0462,0.0174,0.0073,0.0018,-0.0049,-0.0072,0.0196,0.0167,0.0131,0.0131,0.0131,0.0131,0.0131,0.0131,0.083,0.0921,0.0968,0.1146,0.1235,0.1376,0.1471,0.1647,0.1793,0.1995,0.206,0.208,0.1767,0.0735,0.0067,-0.0088,-0.0251,-0.0303,-0.038,-0.0205,-0.0189,-0.0174,-0.0218,-0.0334,-0.0335,-0.0595,-0.0598,-0.06]}],[{"header":{"parameterUnit":"m.s-1","parameterCategory":2,"la1":30.2991,"la2":30.254,"lo1":-89.0895,"lo2":-89.0444,"dy":0.0017,"dx":0.0017,"nx":28,"ny":28,"refTime":"2023-09-21T21:00:00:Z","depth":"2","parameterNumber":2,"parameterNumberName":"U-component_of_CURRENTS"},"data":[0,0,0,0,0,0,0,0,0,0,0,0,0,0,0,0,0,0,0,0,0,0,0,0,0,0,0,0,0,0,0,0,0,0,0,0,0,0,0,0,0,0,0,0,0,0,0,0,0,0,0,0,0,0,0,0,0,0,0.253,0.2531,0,0.2521,0.252,0.252,0.2505,0.2505,0.2505,0.2505,0.2523,0.2523,0.2524,0,0,0,0,0,0,0,0,0,0,0,0,0,0.2542,0.2542,0.253,0.2531,0.2531,0.2521,0.252,0.252,0.2505,0.2505,0.2505,0.2505,0.2523,0.2523,0.2524,0,0,0,0,0,0,0,0,0,0,0,0,0,0.2533,0.2542,0.253,0.2524,0.2524,0.2521,0.252,0.252,0.2505,0.2505,0.2505,0.2505,0.2522,0.2523,0.2524,0.2529,0,0,0.2526,0.2526,0,0,0,0,0,0,0,0,0.2533,0.2532,0.2525,0.2524,0.2524,0.2516,0.2531,0.2525,0.2505,0.2509,0.2505,0.2505,0.2525,0.2526,0.252,0.253,0.2531,0.2526,0.2527,0.2527,0.2527,0,0,0,0,0,0,0,0.2534,0.2532,0.2524,0.2525,0.2525,0.2524,0.2522,0.253,0.2516,0.2509,0.2508,0.2512,0.2525,0.2519,0.252,0.2531,0.2526,0.2527,0.2527,0.2528,0.2623,0.2625,0,0,0,0,0,0,0.254,0.2533,0.2524,0.2524,0.2532,0.2524,0.2522,0.2517,0.2515,0.2516,0.2512,0.2511,0.2518,0.2519,0.2521,0.258,0.2527,0.2528,0.2528,0.2621,0.2623,0.2625,0,0,0,0,0,0,0.254,0.2539,0.2525,0.2531,0.2529,0.2524,0.2518,0.2517,0.2534,0.2518,0.2518,0.2534,0.2518,0.252,0.2548,0.2579,0.2528,0.2529,0.2618,0.2621,0.2624,0.2666,0,0,0,0,0,0,0.254,0.2539,0.2534,0.2531,0.2529,0.2544,0.2519,0.2517,0.2536,0.2536,0.2537,0.2537,0.2518,0.2547,0.2548,0.2579,0.2529,0.2616,0.262,0.2623,0.2662,0.267,0.2677,0,0,0,0,0,0.2541,0.2528,0.2534,0.2533,0.2524,0.2545,0.2545,0.2539,0.2538,0.2553,0.2553,0.2538,0.2573,0.2549,0.255,0.2582,0.2614,0.2618,0.2623,0.2659,0.2669,0.2677,0,0,0,0,0,0,0.2515,0.2526,0.2532,0.2519,0.2545,0.2544,0.2551,0.2558,0.2568,0.2569,0.2556,0.2557,0.2601,0.259,0.2563,0.2625,0.2595,0.26,0.2622,0.2631,0.2638,0.265,0.253,0,0,0,0,0,0.2513,0.2525,0.2535,0.2537,0.2547,0.2559,0.2567,0.2572,0.2581,0.2586,0.258,0.2589,0.2619,0.2623,0.2639,0.2662,0.2678,0.2689,0.2696,0.2703,0.2716,0.2767,0.278,0.2641,0.2641,0.2641,0,0,0.251,0.2517,0.2523,0.2536,0.2552,0.2573,0.2564,0.2588,0.2609,0.2587,0.2606,0.2621,0.2636,0.2667,0.2685,0.2659,0.2754,0.2709,0.2713,0.2724,0.2774,0.2787,0.2799,0.2644,0.2643,0.2643,0,0,0.2512,0.2515,0.2527,0.2554,0.2585,0.2593,0.2612,0.2623,0.2632,0.2666,0.2661,0.269,0.2717,0.2722,0.2736,0.2798,0.2803,0.2815,0.2846,0.2895,0.2907,0.2917,0.2961,0.2974,0.2804,0.2804,0.2804,0,0.2514,0.2516,0.2537,0.256,0.258,0.261,0.2632,0.2653,0.2671,0.2688,0.2684,0.2744,0.2746,0.2796,0.2816,0.2814,0.2848,0.2803,0.2904,0.2914,0.2924,0.2966,0.2981,0.2807,0.2806,0.2806,0.2806,0,0.2517,0.2536,0.2551,0.2591,0.2618,0.2647,0.2681,0.2703,0.2725,0.2748,0.281,0.2814,0.2848,0.286,0.2859,0.2932,0.2936,0.2917,0.2875,0.2941,0.2981,0.2996,0.281,0.2809,0.2809,0.2808,0,0,0.2496,0.2543,0.2556,0.2577,0.2636,0.2657,0.2704,0.2751,0.2793,0.2823,0.2867,0.2922,0.2934,0.2952,0.295,0.2986,0.3078,0.2986,0.2987,0.302,0.3202,0.3073,0.3076,0.3083,0.3086,0.3088,0.3203,0,0.2502,0.2537,0.2563,0.2615,0.2634,0.2682,0.2729,0.2783,0.2832,0.2879,0.2914,0.297,0.2969,0.299,0.3031,0.3076,0.312,0.3049,0.3142,0.3145,0.3014,0.3089,0.2828,0.2898,0.3217,0.322,0.3222,0,0.2494,0.252,0.2555,0.2622,0.2638,0.2676,0.2754,0.2802,0.2889,0.2926,0.2989,0.303,0.3099,0.3076,0.3199,0.3162,0.3196,0.322,0.3224,0.3099,0.3042,0.2885,0.2912,0.3246,0.3244,0.3242,0.324,0,0.2453,0.2519,0.254,0.2565,0.2641,0.2669,0.2721,0.2817,0.287,0.2959,0.3018,0.31,0.3151,0.322,0.3275,0.3261,0.3393,0.3369,0.3284,0.3276,0.3068,0.3035,0.3455,0.3455,0.3454,0.3454,0.3454,0,0.2435,0.246,0.2525,0.2538,0.2587,0.2653,0.2726,0.2784,0.2883,0.2946,0.3044,0.3098,0.3198,0.3277,0.3312,0.3343,0.3429,0.3313,0.3302,0.3074,0.3042,0.3347,0.3333,0.3458,0.3457,0.3457,0.3456,0,0.2385,0.2425,0.2454,0.2531,0.2562,0.2599,0.2719,0.2766,0.2885,0.2963,0.2997,0.3134,0.3231,0.3311,0.341,0.3382,0.3418,0.3398,0.3117,0.307,0.3267,0.3254,0.3344,0.3341,0.3338,0.3335,0.3333,0,0.2356,0.2365,0.2439,0.2458,0.2492,0.2567,0.2611,0.2735,0.2782,0.2966,0.2979,0.3127,0.3167,0.3276,0.3253,0.3285,0.3367,0.3047,0.2955,0.3278,0.3259,0.3251,0.3243,0.2714,0.2707,0.2701,0.2697,0,0.23,0.233,0.2346,0.24,0.2438,0.2485,0.2559,0.2594,0.2725,0.2804,0.2884,0.2944,0.3049,0.2944,0.2982,0.2962,0.3019,0.2929,0.3362,0.276,0.2686,0.2667,0.2679,0.2646,0.2651,0.2654,0.2657,0.2659,0.2257,0.2253,0.2286,0.2317,0.2365,0.2378,0.2376,0.2434,0.248,0.2549,0.268,0.2689,0.2727,0.2647,0.2571,0.2526,0.2742,0.2625,0.2642,0.2666,0.2551,0.2472,0.2372,0.2375,0.2378,0.2381,0.2383,0,0.2192,0.219,0.2209,0.2223,0.2219,0.2294,0.2313,0.2265,0.224,0.2324,0.2363,0.2193,0.2134,0.2193,0.2043,0.2037,0.2019,0.1955,0.1915,0.1967,0.2013,0.1863,0.1503,0.15,0.1498,0.1495,0,0,0.2158,0.2127,0.2116,0.2067,0.2087,0.2031,0.2012,0.1951,0.196,0.1907,0.1897,0.2055,0.2131,0.1795,0.1744,0.1598,0.177,0.1532,0.2241,0.2247,0.2289,0.2406,0.2235,0,0,0,0,0]},{"header":{"parameterUnit":"m.s-1","parameterCategory":2,"la1":30.2991,"la2":30.254,"lo1":-89.0895,"lo2":-89.0444,"dy":0.0017,"dx":0.0017,"nx":28,"ny":28,"refTime":"2023-09-21T21:00:00:Z","depth":"2","parameterNumber":3,"parameterNumberName":"V-component_of_CURRENTS"},"data":[0,0,0,0,0,0,0,0,0,0,0,0,0,0,0,0,0,0,0,0,0,0,0,0,0,0,0,0,0,0,0,0,0,0,0,0,0,0,0,0,0,0,0,0,0,0,0,0,0,0,0,0,0,0,0,0,0,0,0.0186,0.0186,0,0.0154,0.0154,0.0153,0.0132,0.0132,0.0132,0.0132,0.0084,0.0083,0.0081,0,0,0,0,0,0,0,0,0,0,0,0,0,0.0177,0.0178,0.0186,0.0186,0.0185,0.0154,0.0154,0.0153,0.0132,0.0132,0.0132,0.0132,0.0084,0.0083,0.0081,0,0,0,0,0,0,0,0,0,0,0,0,0,0.0166,0.0178,0.0186,0.0172,0.017,0.0154,0.0154,0.0153,0.0132,0.0132,0.0132,0.0132,0.0085,0.0083,0.0081,0.0073,0,0,0.0076,0.0075,0,0,0,0,0,0,0,0,0.0167,0.0167,0.0174,0.0173,0.0171,0.0147,0.0133,0.0126,0.0132,0.0146,0.0132,0.0132,0.0104,0.0101,0.0094,0.007,0.0068,0.0075,0.0074,0.0074,0.0073,0,0,0,0,0,0,0,0.0168,0.0168,0.0173,0.0174,0.0172,0.0149,0.0148,0.0131,0.0125,0.0145,0.0143,0.0141,0.0103,0.0096,0.0093,0.0068,0.0076,0.0074,0.0073,0.0072,0.0034,0.0034,0,0,0,0,0,0,0.0176,0.0169,0.0174,0.0172,0.0169,0.0149,0.0148,0.0155,0.0126,0.0122,0.0141,0.014,0.0099,0.0095,0.0091,0.0095,0.0074,0.0072,0.0071,0.0034,0.0034,0.0034,0,0,0,0,0,0,0.0176,0.0177,0.0175,0.0169,0.0168,0.015,0.0157,0.0154,0.0149,0.0123,0.0118,0.0139,0.0099,0.0094,0.0081,0.0092,0.0071,0.007,0.0034,0.0034,0.0034,0.0092,0,0,0,0,0,0,0.0176,0.0178,0.0185,0.017,0.0168,0.0174,0.0158,0.0154,0.0148,0.0146,0.012,0.0116,0.0098,0.0084,0.0079,0.0089,0.0068,0.0034,0.0034,0.0034,0.009,0.0094,0.0097,0,0,0,0,0,0.0176,0.0191,0.0186,0.0186,0.0179,0.0174,0.0171,0.0157,0.0148,0.0151,0.0132,0.0117,0.0081,0.0083,0.0077,0.0087,0.0034,0.0034,0.0034,0.0088,0.0093,0.0097,0,0,0,0,0,0,0.0192,0.019,0.0184,0.0198,0.0188,0.0171,0.0173,0.016,0.0147,0.0145,0.0118,0.0113,0.0104,0.0085,0.0087,0.0074,0.0054,0.0053,0.0097,0.0102,0.0105,0.0127,0.0067,0,0,0,0,0,0.0199,0.021,0.0199,0.021,0.0208,0.019,0.0185,0.0176,0.0162,0.0156,0.0139,0.0118,0.01,0.0093,0.0074,0.007,0.0052,0.007,0.0074,0.0078,0.009,0.0069,0.0072,0.0035,0.0035,0.0035,0,0,0.0208,0.0208,0.0214,0.0214,0.0206,0.0213,0.0187,0.0186,0.0193,0.0152,0.0158,0.013,0.01,0.0095,0.0089,0.0082,0.0078,0.0078,0.0081,0.0092,0.0069,0.0073,0.0076,0.0035,0.0035,0.0035,0,0,0.0234,0.0232,0.025,0.0247,0.024,0.0231,0.0233,0.0219,0.0214,0.0211,0.0182,0.0164,0.014,0.0124,0.0111,0.0123,0.0096,0.0112,0.0154,0.0133,0.0136,0.0139,0.0122,0.0123,0.0118,0.0118,0.0118,0,0.0242,0.0268,0.0253,0.0268,0.0274,0.0244,0.0264,0.0254,0.0238,0.0241,0.0221,0.0186,0.0157,0.0153,0.0154,0.0134,0.0117,0.0142,0.014,0.0142,0.0144,0.0126,0.0126,0.0121,0.012,0.012,0.012,0,0.0282,0.03,0.0311,0.0324,0.0325,0.0338,0.0325,0.0326,0.0312,0.0302,0.0293,0.025,0.0232,0.0214,0.0187,0.0186,0.0168,0.0145,0.0133,0.0151,0.0131,0.013,0.0125,0.0124,0.0123,0.0122,0,0,0.0311,0.0336,0.0341,0.0361,0.036,0.0369,0.0381,0.039,0.0408,0.0376,0.0396,0.0347,0.032,0.0302,0.0262,0.0241,0.0231,0.0203,0.0201,0.0197,0.0189,0.0164,0.016,0.0206,0.0207,0.0207,0.017,0,0.035,0.0398,0.0397,0.0442,0.0468,0.0451,0.0472,0.0471,0.0461,0.0471,0.0421,0.0416,0.0354,0.0346,0.0314,0.0254,0.0231,0.0244,0.0164,0.0162,0.0145,0.0159,0.0177,0.0145,0.0169,0.0169,0.0169,0,0.0393,0.0423,0.0478,0.0518,0.0528,0.0547,0.058,0.0596,0.0591,0.0583,0.0559,0.0515,0.0479,0.0422,0.0334,0.0344,0.0274,0.0222,0.0219,0.0178,0.0135,0.0129,0.0142,0.0167,0.0167,0.0167,0.0168,0,0.0434,0.0482,0.0533,0.0545,0.0581,0.0604,0.0623,0.0632,0.0665,0.0655,0.0673,0.0607,0.059,0.0492,0.037,0.0354,0.0274,0.0238,0.015,0.0147,0.0139,0.0135,0.0179,0.0179,0.0179,0.0179,0.0179,0,0.0482,0.0522,0.056,0.0588,0.066,0.066,0.0728,0.0735,0.076,0.0815,0.0737,0.0757,0.0607,0.0535,0.0409,0.0282,0.0301,0.0166,0.0139,0.0158,0.0157,0.0155,0.0153,0.0178,0.0178,0.0178,0.0179,0,0.0521,0.0543,0.0608,0.0659,0.0683,0.0735,0.0805,0.0852,0.0865,0.0933,0.0936,0.0877,0.0784,0.0627,0.0474,0.0348,0.0219,0.0166,0.0199,0.0176,0.0095,0.0097,0.0071,0.007,0.0069,0.0068,0.0067,0,0.0546,0.0586,0.0665,0.0713,0.074,0.0815,0.0872,0.0906,0.0963,0.1013,0.1055,0.0984,0.0947,0.0708,0.0479,0.0263,0.0224,0.0124,0.009,0.011,0.0086,0.0088,0.0091,0.0102,0.0101,0.0101,0.0101,0,0.0597,0.0625,0.068,0.0778,0.0847,0.0936,0.1017,0.1079,0.1135,0.1187,0.1238,0.1211,0.0995,0.0776,0.0471,0.0316,0.0156,0.0111,0.0131,0.0124,0.0135,0.0112,0.0114,0.0098,0.0099,0.0099,0.0099,0.0099,0.0636,0.0684,0.0755,0.0849,0.0935,0.1043,0.1119,0.1205,0.1308,0.1385,0.1361,0.1323,0.1082,0.0692,0.0432,0.0149,0.0159,0.0045,0.0048,0.0051,0.0058,0.0067,0.0019,0.0019,0.0019,0.0019,0.0018,0,0.0684,0.0736,0.082,0.093,0.1025,0.1067,0.1208,0.1282,0.1402,0.1459,0.1486,0.1249,0.101,0.0728,0.0323,0.0079,0.0058,-0.0015,0.002,0.0024,0.0028,0.0035,-0.0011,-0.0012,-0.0012,-0.0013,0,0,0.0709,0.0789,0.0828,0.0981,0.1063,0.1191,0.1275,0.1382,0.1454,0.1502,0.1477,0.1421,0.1096,0.0794,0.0466,0.0233,0.0179,0.0175,0.0224,0.0309,0.0315,0.0087,0.0105,0,0,0,0,0]}],[{"header":{"parameterUnit":"m.s-1","parameterCategory":2,"la1":30.2991,"la2":30.254,"lo1":-89.0895,"lo2":-89.0444,"dy":0.0017,"dx":0.0017,"nx":28,"ny":28,"refTime":"2023-09-21T21:00:00:Z","depth":"4","parameterNumber":2,"parameterNumberName":"U-component_of_CURRENTS"},"data":[0,0,0,0,0,0,0,0,0,0,0,0,0,0,0,0,0,0,0,0,0,0,0,0,0,0,0,0,0,0,0,0,0,0,0,0,0,0,0,0,0,0,0,0,0,0,0,0,0,0,0,0,0,0,0,0,0,0,0.1401,0.1401,0,0.1439,0.1439,0.1439,0.1478,0.1479,0.1479,0.148,0.1536,0.1537,0.1538,0,0,0,0,0,0,0,0,0,0,0,0,0,0.1375,0.1375,0.1401,0.1401,0.1402,0.1439,0.1439,0.144,0.1478,0.1479,0.1479,0.148,0.1536,0.1537,0.1538,0,0,0,0,0,0,0,0,0,0,0,0,0,0.1395,0.1375,0.1401,0.1427,0.1429,0.1439,0.1439,0.144,0.1478,0.1479,0.148,0.1481,0.1536,0.1537,0.1538,0.1527,0,0,0.1542,0.1543,0,0,0,0,0,0,0,0,0.1394,0.1396,0.1422,0.1425,0.1428,0.1456,0.1451,0.147,0.1477,0.1458,0.148,0.1481,0.1511,0.1515,0.1517,0.1529,0.1532,0.1542,0.1543,0.1544,0.1544,0,0,0,0,0,0,0,0.1392,0.1394,0.1414,0.1423,0.1426,0.1441,0.1445,0.1454,0.1478,0.1459,0.1463,0.1469,0.1513,0.1516,0.1519,0.1532,0.1542,0.1543,0.1544,0.1545,0.1636,0.1638,0,0,0,0,0,0,0.1389,0.1393,0.1413,0.1416,0.1415,0.1441,0.1445,0.1445,0.1477,0.1483,0.1468,0.1471,0.1513,0.1517,0.1521,0.1589,0.1544,0.1545,0.1546,0.1635,0.1637,0.1639,0,0,0,0,0,0,0.1388,0.139,0.1412,0.1407,0.1411,0.144,0.144,0.1445,0.1482,0.1484,0.149,0.1504,0.1514,0.1519,0.1559,0.1589,0.1545,0.1547,0.1633,0.1635,0.1638,0.1674,0,0,0,0,0,0,0.1387,0.1389,0.1409,0.1406,0.1411,0.1436,0.1439,0.1445,0.1483,0.1488,0.1516,0.1521,0.1515,0.1557,0.1561,0.159,0.1548,0.1631,0.1634,0.1637,0.1671,0.1677,0.1683,0,0,0,0,0,0.1386,0.1396,0.1409,0.1413,0.1429,0.1437,0.1441,0.1464,0.1485,0.1502,0.1527,0.1522,0.158,0.156,0.1563,0.1593,0.1629,0.1633,0.1637,0.1668,0.1676,0.1683,0,0,0,0,0,0,0.1396,0.1401,0.1415,0.1429,0.1444,0.1445,0.1468,0.1484,0.1516,0.1534,0.1537,0.1543,0.1594,0.159,0.1568,0.1631,0.1606,0.161,0.1629,0.1636,0.1642,0.1648,0.1549,0,0,0,0,0,0.1407,0.1416,0.1425,0.144,0.1451,0.1468,0.1484,0.1499,0.1518,0.1535,0.1552,0.1578,0.1606,0.1619,0.164,0.1666,0.1676,0.1691,0.1697,0.1702,0.1711,0.1752,0.1763,0.1651,0.1651,0.1651,0,0,0.1413,0.142,0.1426,0.1444,0.1459,0.1477,0.1481,0.151,0.1533,0.1535,0.1582,0.1606,0.1622,0.1658,0.1679,0.1659,0.174,0.1707,0.1711,0.1717,0.1757,0.1768,0.1778,0.1653,0.1653,0.1652,0,0,0.1419,0.144,0.1451,0.1469,0.1499,0.1506,0.1523,0.1545,0.1568,0.161,0.1624,0.1665,0.17,0.1711,0.1723,0.1776,0.178,0.1791,0.1816,0.1857,0.1866,0.1874,0.1901,0.1911,0.1784,0.1784,0.1784,0,0.1436,0.1441,0.1457,0.1477,0.1494,0.1523,0.1542,0.1567,0.1601,0.1624,0.1636,0.1713,0.1724,0.1769,0.1789,0.179,0.1813,0.1783,0.1864,0.1872,0.188,0.1906,0.1917,0.1786,0.1786,0.1786,0.1786,0,0.1441,0.1463,0.1472,0.1502,0.1527,0.1546,0.1578,0.1615,0.1652,0.1675,0.1745,0.1768,0.1816,0.1825,0.1824,0.1886,0.1885,0.1873,0.1841,0.1894,0.1917,0.1928,0.1789,0.1789,0.1788,0.1788,0,0,0.143,0.1466,0.1475,0.1494,0.1542,0.1558,0.1606,0.1647,0.1692,0.1741,0.1794,0.1846,0.1878,0.1895,0.1905,0.193,0.2,0.1929,0.193,0.1949,0.2093,0.1952,0.195,0.2009,0.2011,0.2013,0.2086,0,0.1432,0.1461,0.1481,0.1521,0.1538,0.1584,0.1624,0.1677,0.1727,0.1788,0.1833,0.1895,0.1899,0.1936,0.1969,0.2003,0.2032,0.1982,0.2046,0.2047,0.191,0.1959,0.202,0.2094,0.2097,0.2098,0.21,0,0.1428,0.1449,0.1479,0.1528,0.1543,0.1582,0.1659,0.1701,0.1789,0.1833,0.1908,0.1951,0.2022,0.201,0.2102,0.2077,0.2096,0.2106,0.2109,0.1972,0.1926,0.2032,0.2119,0.2117,0.2116,0.2115,0.2113,0,0.1399,0.1446,0.1467,0.1486,0.155,0.1589,0.1639,0.1725,0.1773,0.1876,0.1931,0.2016,0.2082,0.2127,0.2171,0.2152,0.2255,0.2224,0.2113,0.2103,0.2191,0.2182,0.2283,0.2283,0.2282,0.2282,0.2282,0,0.1369,0.1395,0.1464,0.1479,0.1529,0.1589,0.1662,0.1721,0.1821,0.1878,0.1967,0.2023,0.212,0.2187,0.2204,0.2197,0.2292,0.2128,0.2115,0.2205,0.2196,0.2199,0.2188,0.2285,0.2284,0.2284,0.2283,0,0.1319,0.1361,0.1398,0.148,0.1513,0.1559,0.1673,0.1716,0.1828,0.1908,0.1948,0.2067,0.2145,0.2214,0.2288,0.223,0.2234,0.2205,0.2308,0.2299,0.2046,0.2037,0.208,0.2075,0.2072,0.2069,0.2066,0,0.1283,0.1296,0.1395,0.1425,0.1464,0.1546,0.159,0.1707,0.1748,0.1911,0.1928,0.2058,0.2119,0.2121,0.2196,0.2215,0.2186,0.217,0.209,0.2043,0.2028,0.2024,0.202,0.206,0.2059,0.2059,0.2058,0,0.1219,0.1271,0.1306,0.1369,0.1422,0.1471,0.1549,0.1572,0.1695,0.1819,0.1867,0.191,0.199,0.2036,0.2072,0.2077,0.2166,0.2131,0.2137,0.2062,0.202,0.2008,0.2008,0.2045,0.2047,0.2048,0.2049,0,0.1182,0.1194,0.1252,0.1293,0.1356,0.1369,0.1425,0.1469,0.1532,0.1699,0.1715,0.1849,0.1972,0.1965,0.1997,0.1994,0.1952,0.1871,0.189,0.1905,0.181,0.173,0.1662,0,0,0,0,0,0.1139,0.1137,0.1167,0.1202,0.1256,0.1295,0.1373,0.1427,0.1552,0.1539,0.1624,0.1685,0.1738,0.1807,0.1768,0.1911,0.1956,0.1854,0.1871,0.1975,0.1989,0.1893,0,0,0,0,0,0,0.1106,0.1137,0.1136,0.1115,0.1122,0.1165,0.1212,0.1294,0.1291,0.1432,0.1471,0.1582,0.166,0.1754,0.174,0.1759,0.1731,0.1941,0.1936,0.1966,0.198,0.1991,0.1897,0,0,0,0,0]},{"header":{"parameterUnit":"m.s-1","parameterCategory":2,"la1":30.2991,"la2":30.254,"lo1":-89.0895,"lo2":-89.0444,"dy":0.0017,"dx":0.0017,"nx":28,"ny":28,"refTime":"2023-09-21T21:00:00:Z","depth":"4","parameterNumber":3,"parameterNumberName":"V-component_of_CURRENTS"},"data":[0,0,0,0,0,0,0,0,0,0,0,0,0,0,0,0,0,0,0,0,0,0,0,0,0,0,0,0,0,0,0,0,0,0,0,0,0,0,0,0,0,0,0,0,0,0,0,0,0,0,0,0,0,0,0,0,0,0,0.0194,0.0194,0,0.0178,0.0178,0.0177,0.0171,0.0171,0.0171,0.0171,0.0153,0.0153,0.0152,0,0,0,0,0,0,0,0,0,0,0,0,0,0.0179,0.018,0.0194,0.0194,0.0193,0.0178,0.0178,0.0177,0.0171,0.0171,0.0171,0.0172,0.0153,0.0153,0.0152,0,0,0,0,0,0,0,0,0,0,0,0,0,0.0177,0.018,0.0194,0.0188,0.0188,0.0178,0.0178,0.0177,0.0171,0.0171,0.0171,0.0172,0.0154,0.0153,0.0152,0.0146,0,0,0.015,0.0149,0,0,0,0,0,0,0,0,0.0177,0.0177,0.0189,0.0189,0.0188,0.0176,0.0166,0.0167,0.0171,0.0178,0.0171,0.0172,0.0161,0.0159,0.0157,0.0146,0.0145,0.015,0.0149,0.0149,0.0149,0,0,0,0,0,0,0,0.0177,0.0178,0.0188,0.0189,0.0188,0.0173,0.0173,0.0166,0.0169,0.0177,0.0177,0.0175,0.016,0.0157,0.0156,0.0145,0.015,0.0149,0.0149,0.0148,0.0141,0.0141,0,0,0,0,0,0,0.0181,0.0178,0.0188,0.0187,0.0182,0.0173,0.0173,0.018,0.0169,0.0168,0.0175,0.0174,0.0159,0.0157,0.0155,0.0169,0.0149,0.0148,0.0148,0.0141,0.0141,0.0141,0,0,0,0,0,0,0.0181,0.0182,0.0189,0.0181,0.0181,0.0174,0.0181,0.018,0.0181,0.0167,0.0166,0.0178,0.0159,0.0156,0.0155,0.0167,0.0148,0.0147,0.014,0.0141,0.0141,0.0182,0,0,0,0,0,0,0.0181,0.0183,0.019,0.0182,0.0182,0.0191,0.0181,0.018,0.018,0.0179,0.017,0.0168,0.0158,0.0156,0.0154,0.0166,0.0147,0.014,0.014,0.0141,0.018,0.0184,0.0186,0,0,0,0,0,0.018,0.0192,0.0191,0.0192,0.0192,0.0191,0.019,0.0184,0.018,0.0185,0.0177,0.0168,0.0158,0.0156,0.0154,0.0165,0.014,0.014,0.0141,0.0179,0.0183,0.0186,0,0,0,0,0,0,0.0189,0.0192,0.019,0.0203,0.02,0.0191,0.0194,0.0188,0.0185,0.0186,0.0171,0.0169,0.0171,0.0161,0.0159,0.0163,0.0147,0.0148,0.0177,0.0181,0.0184,0.0195,0.0146,0,0,0,0,0,0.0195,0.0206,0.0202,0.0212,0.0212,0.0203,0.0202,0.0199,0.0193,0.0192,0.0186,0.0178,0.0171,0.0171,0.0162,0.0166,0.0142,0.0171,0.0174,0.0177,0.0184,0.0151,0.0151,0.0143,0.0143,0.0143,0,0,0.0201,0.0204,0.0211,0.0215,0.0213,0.0221,0.0204,0.0207,0.0216,0.0191,0.0204,0.0188,0.0173,0.0177,0.0177,0.0172,0.0166,0.0178,0.018,0.0185,0.0151,0.0152,0.0153,0.0144,0.0143,0.0143,0,0,0.022,0.0223,0.0238,0.0239,0.0239,0.0235,0.0238,0.0233,0.0235,0.0241,0.0223,0.0215,0.021,0.0201,0.0195,0.021,0.0181,0.0208,0.0237,0.0206,0.0206,0.0206,0.0175,0.0172,0.0213,0.0213,0.0213,0,0.0226,0.0249,0.0241,0.0254,0.0261,0.0245,0.0262,0.026,0.0257,0.0261,0.0252,0.0238,0.0223,0.0223,0.0229,0.0218,0.0194,0.0226,0.021,0.0209,0.0209,0.0177,0.0173,0.0215,0.0215,0.0215,0.0215,0,0.0255,0.0273,0.0282,0.0297,0.0301,0.0314,0.031,0.0317,0.0314,0.0309,0.031,0.0285,0.0278,0.0269,0.0255,0.0248,0.023,0.0214,0.0201,0.0212,0.0178,0.0173,0.0218,0.0217,0.0217,0.0216,0,0,0.0272,0.0298,0.0303,0.0323,0.0328,0.0338,0.0353,0.0364,0.0379,0.0366,0.0379,0.0358,0.0338,0.033,0.0305,0.028,0.0251,0.0251,0.0248,0.0223,0.0179,0.0167,0.0161,0.023,0.023,0.0229,0.0157,0,0.0299,0.0339,0.0343,0.0383,0.0404,0.04,0.042,0.0424,0.0422,0.0428,0.0397,0.0396,0.0363,0.036,0.0328,0.0272,0.0241,0.0272,0.0171,0.0168,0.0158,0.0156,0.0228,0.0153,0.0152,0.0151,0.0151,0,0.0327,0.0354,0.04,0.0438,0.0447,0.0467,0.0496,0.0514,0.051,0.0507,0.049,0.046,0.0427,0.0393,0.0302,0.0323,0.0258,0.0208,0.0203,0.0176,0.0147,0.0139,0.0142,0.0142,0.0143,0.0144,0.0144,0,0.0349,0.0394,0.0438,0.045,0.0487,0.051,0.0531,0.054,0.0566,0.0556,0.0563,0.0509,0.0491,0.0403,0.0299,0.0299,0.0189,0.0173,0.0099,0.0098,0.0112,0.0113,0.0103,0.0104,0.0104,0.0104,0.0104,0,0.0377,0.0413,0.0455,0.0479,0.054,0.0548,0.0604,0.0613,0.063,0.0663,0.0609,0.0608,0.0491,0.0414,0.0312,0.0193,0.0195,0.0105,0.0079,0.0131,0.0134,0.0108,0.011,0.0101,0.0102,0.0102,0.0103,0,0.0395,0.0422,0.0477,0.0529,0.0553,0.0597,0.0662,0.0696,0.0706,0.0743,0.0742,0.0682,0.0582,0.0455,0.0307,0.0218,0.0098,0.0052,0.0119,0.0097,0.0024,0.0029,-0.0032,-0.0033,-0.0034,-0.0034,-0.0035,0,0.0407,0.0439,0.0517,0.0558,0.0587,0.0654,0.0701,0.0736,0.077,0.0786,0.0801,0.0723,0.0663,0.045,0.0308,0.0108,0.0077,0.0008,0.0015,0.003,0.0011,0.0017,0.0022,-0.0036,-0.0037,-0.0037,-0.0037,0,0.0432,0.0462,0.0509,0.0593,0.0654,0.0729,0.0794,0.0825,0.0863,0.0871,0.0847,0.074,0.0627,0.0456,0.0297,0.0153,0.0049,-0.0002,-0.0001,0.0006,0.0024,0.0007,0.0013,-0.004,-0.004,-0.0039,-0.0039,0,0.0452,0.0487,0.0548,0.0624,0.0704,0.0777,0.0814,0.0851,0.0889,0.0898,0.0885,0.0765,0.0694,0.0479,0.0333,0.019,0.0154,0.0098,0.0093,0.0095,0.015,0.0193,0.0159,0,0,0,0,0,0.0469,0.0507,0.0573,0.0655,0.0733,0.0782,0.0864,0.0891,0.0924,0.0913,0.0903,0.0796,0.0589,0.0499,0.0355,0.0309,0.0122,0.0133,0.0054,-0.0057,-0.0053,-0.0012,0,0,0,0,0,0,0.0478,0.0539,0.0569,0.0667,0.0723,0.0814,0.0869,0.0895,0.0887,0.0895,0.0789,0.0745,0.0544,0.067,0.0346,0.0304,0.023,0.004,0.0037,-0.0059,-0.0056,-0.0053,-0.0009,0,0,0,0,0]}]]